Weather in Kolbinka

Russia / Tomsk District     57°30′49″N   83°25′23″E
temp.,
°C
wind,
m/s
gust,
m/s
humid.,
%
clouds,
%
prec.,
mm/h
press.,
hPa
HPBL,
m
8 march, mon
mon801:00−14ssw259687 0.1 101896
04:00−12sse379399 0.0 1016237
07:00−10sse51487100 0.0 1012478
10:00−6s71593100 1.1 1007743
13:00−2s71594100 1.7 1003879
16:00−1s81594100 0.9 999957
19:00−1sw71592100 1.6 9991189
22:00−8w6138791 0.8 1004901
9 march, tue
tue901:00−10w5138996 0.8 1009737
04:00−11wsw41192100 0.0 1012621
07:00−11wsw41093100 0.1 1015577
10:00−12sw51092100 0.1 1018528
13:00−9sw5108595 0.1 1018783
16:00−7ssw6118576 0.1 1018993
19:00−9ssw4119088 0.1 1017637
22:00−10ssw51292100 0.1 1015634
10 march, wed
wed1001:00−10ssw51391100 0.2 1013691
04:00−10sw51293100 0.4 1012688
07:00−11sw41192100 0.7 1013534
10:00−11sw489399 0.1 1014417
13:00−8ssw3593100 0.1 1014418
16:00−7s3593100 0.0 1014449
19:00−7sse2594100 0.1 1012356
22:00−8se3895100 0.0 1008328
11 march, thu
thu1101:00−8e3696100 0.2 1002254
04:00−6ene3796100 4.8 995236
07:00−1ssw4129999 6.1 992603
10:00−5wsw81489100 1.2 995976
13:00−5wsw61187100 1.4 1002963
16:00−4sw5988100 0.3 10051079
19:00−6sw51192100 0.4 1007932
22:00−8sw6138899 0.1 1009957
12 march, fri
fri1201:00−11sw51490100 0.1 1011710
04:00−11ssw3994100 0.0 1009460
07:00−11ssw2796100 0.4 1007354
10:00−10wsw5108898 0.1 10081033
13:00−11sw6108499 0.3 10111196
16:00−13wsw61087100 0.2 10141184
19:00−14wsw4892100 0.4 1017864
22:00−19w499588 0.1 1021647